Regional Weather Roundup
Issued by NWS

Home | Current Version | Previous Version | Graphics & Text | Print | Product List | Glossary On
Versions: 1 2 3 4 5 6 7 8 9 10 11 12 13 14 15 16 17 18 19 20 21 22 23 24 25 26 27 28 29 30 31 32 33 34 35 36 37 38 39 40 41 42 43 44 45 46 47 48 49 50
000
ASUS43 KIND 231809
RWRIN

WEATHER ROUNDUP FOR INDIANA
NATIONAL WEATHER SERVICE INDIANAPOLIS IN
100 PM EST SUN NOV 23 2014

NOTE: "FAIR" INDICATES FEW OR NO CLOUDS BELOW 12,000 FEET WITH NO
SIGNIFICANT WEATHER AND/OR OBSTRUCTIONS TO VISIBILITY.

* - STATION DOES NOT REPORT WEATHER SUCH AS PRECIPITATION OR FOG.

+ - STATION NOT QUALITY CONTROLLED BY THE NATIONAL WEATHER SERVICE.
    USE DATA WITH CAUTION...ESPECIALLY DEWPOINT AND RELATIVE
    HUMIDITY OBSERVATIONS.

INZ001>003-010>013-019-020-231900-
NORTHWEST INDIANA

CITY           SKY/WX    TMP DP  RH WIND       PRES   REMARKS
GARY /AIRPORT/ CLOUDY    54  46  76 S12       29.66F
KNOX *+        CLOUDY    52  45  76 S14       29.69F
LA PORTE +     CLOUDY    53  47  82 S10       29.69F
6HR MIN TEMP:  48; 6HR MAX TEMP:  53;

MICHIGAN CITY+ CLOUDY    52  43  71 S9        29.68F
MONTICELLO +   CLOUDY    54  47  80 S7        29.69F
RENSSELAER +   CLOUDY    54  50  87 SE12      29.67F
VALPARAISO     CLOUDY    51  45  79 SE10      29.68F
6HR MIN TEMP:  47; 6HR MAX TEMP:  51; 6HR PCP: TRACE;


$$

LMZ046-743>745-231900-
SOUTHERN LAKE MICHIGAN

STATION/POSITION TIME  TEMP WIND        PRES
                       AIR  DIR/SP/G
                 (UTC) (F)  (DEG/KT/KT) (MB)
MICHIGAN CITY    1800   52  140/ 11/ 14   N/A

$$

INZ004-005-014>016-021>024-231900-
NORTH CENTRAL INDIANA

CITY           SKY/WX    TMP DP  RH WIND       PRES   REMARKS
GOSHEN         CLOUDY    54  45  71 S10       29.72F
6HR MIN TEMP:  46; 6HR MAX TEMP:  54; 6HR PCP: TRACE;

LOGANSPORT +   CLOUDY    54  46  76 S7        29.71F
PERU/GRISSOM   CLOUDY    55  54  94 S12       29.71F
6HR MIN TEMP:  44; 6HR MAX TEMP:  56; 6HR PCP: TRACE;

ROCHESTER +    CLOUDY    55  46  71 SE6       29.71F
SOUTH BEND     CLOUDY    53  46  77 S13       29.71F
6HR MIN TEMP:  48; 6HR MAX TEMP:  54; 6HR PCP: TRACE;

WARSAW +       CLOUDY    54  45  71 SE6       29.72F

$$

INZ006>009-017-018-025>027-231900-
NORTHEAST INDIANA

CITY           SKY/WX    TMP DP  RH WIND       PRES   REMARKS
ANGOLA *+      SUNNY     52  41  66 SE8       29.74F
AUBURN +       CLOUDY    55  45  67 SE7       29.76F
FORT WAYNE     PTSUNNY   55  47  74 SE10      29.75F
6HR MIN TEMP:  44; 6HR MAX TEMP:  55; 6HR PCP: TRACE;

HUNTINGTON +   PTSUNNY   56  49  75 SE7       29.72F
6HR MIN TEMP:  45; 6HR MAX TEMP:  56;


$$

INZ028-029-035-036-043>045-051>053-231900-
WEST CENTRAL INDIANA

CITY           SKY/WX    TMP DP  RH WIND       PRES   REMARKS
GREENCASTLE +  RAIN      50  48  93 SE7       29.69F
LAFAYETTE      LGT RAIN  53  47  79 S10G21    29.68F
6HR MIN TEMP:  47; 6HR MAX TEMP:  55; 6HR PCP: TRACE;

TERRE HAUTE    LGT RAIN  52  49  89 SE16G23   29.66F FOG
6HR MIN TEMP:  49; 6HR MAX TEMP:  56; 6HR PCP:  0.01;


$$

INZ030>032-037>040-046>048-054>057-064-065-231900-
CENTRAL INDIANA

CITY           SKY/WX    TMP DP  RH WIND       PRES   REMARKS
CP ATTERBURY + LGT RAIN  54  46  76 SE8       29.72F
COLUMBUS       LGT RAIN  55  50  82 S10       29.72F FOG
FRANKFORT +    DRIZZLE   52  52 100 SE7       29.71F
GREENWOOD *+   CLOUDY    54  46  76 SE8       29.72F
INDIANAPOLIS   LGT RAIN  51  48  89 SE9       29.69F
6HR MIN TEMP:  45; 6HR MAX TEMP:  55; 6HR PCP:  0.10;

-EAGLE CREEK   CLOUDY    51  48  89 SE6       29.70F
6HR MIN TEMP:  46; 6HR MAX TEMP:  55; 6HR PCP:  0.09;

KOKOMO *+      CLOUDY    54  46  76 S16       29.71F
MARION +       CLOUDY    56  48  73 S13       29.73F
MT COMFORT *+  CLOUDY    55  45  67 SE9       29.72F
SHELBYVILLE    CLOUDY    57  50  77 SE9       29.72F
6HR MIN TEMP:  49; 6HR MAX TEMP:  59; 6HR PCP:  0.03;

ZIONSVILLE +   CLOUDY    51  47  84 SE10      29.71F
6HR MIN TEMP:  47; 6HR MAX TEMP:  56; 6HR PCP:  0.04;


$$

INZ033-034-041-042-049-050-058-059-231900-
EAST CENTRAL INDIANA

CITY           SKY/WX    TMP DP  RH WIND       PRES   REMARKS
MUNCIE         CLOUDY    58  46  64 SE12G20   29.73F
6HR MIN TEMP:  50; 6HR MAX TEMP:  59;


$$

INZ060-061-067>069-081>083-085>088-231900-
SOUTHWEST INDIANA

CITY           SKY/WX    TMP DP  RH WIND       PRES   REMARKS
EVANSVILLE     HVY RAIN  53  49  86 E3        29.65F FOG
6HR MIN TEMP:  51; 6HR MAX TEMP:  54; 6HR PCP:  0.04;

HUNTINGBURG *+ CLOUDY    55  48  76 SE12G20   29.67F
6HR MIN TEMP:  50; 6HR MAX TEMP:  55; 6HR PCP:  0.07;

WASHINGTON +   RAIN      53  53 100 SE10      29.66F
6HR MIN TEMP:  49; 6HR MAX TEMP:  55; 6HR PCP:  0.02;


$$

INZ062-063-066-070>080-084-089>092-231900-
SOUTH CENTRAL AND SOUTHEAST INDIANA

CITY           SKY/WX    TMP DP  RH WIND       PRES   REMARKS
BLOOMINGTON    LGT RAIN  52  51  97 SE10      29.68F FOG
6HR MIN TEMP:  49; 6HR MAX TEMP:  54; 6HR PCP:  0.14;


$$



USA.gov is the U.S. government's official web portal to all federal, state and local government web resources and services.